Regional Weather Roundup
Issued by NWS

Home | Current Version | Previous Version | Graphics & Text | Print | Product List | Glossary On
Versions: 1 2 3 4 5 6 7 8 9 10 11 12 13 14 15 16 17 18 19 20 21 22 23 24 25 26 27 28 29 30 31 32 33 34 35 36 37 38 39 40 41 42 43 44 45 46 47 48 49 50
968
ASUS43 KMPX 261210
RWRMN
WEATHER ROUNDUP FOR MINNESOTA
NATIONAL WEATHER SERVICE TWIN CITIES/CHANHASSEN MN
700 AM CDT THU MAY 26 2016


NOTE: "FAIR" INDICATES FEW OR NO CLOUDS BELOW 12,000 FEET WITH NO
SIGNIFICANT WEATHER AND/OR OBSTRUCTIONS TO VISIBILITY. N/A MEANS
CURRENT SKY AND/OR WEATHER CONDITIONS ARE NOT AVAILABLE.

MNZ060>063-068>070-261300-
   Twin Cities Metro

CITY           SKY/WX    TMP DP  RH WIND       PRES   REMARKS
TWIN CITIES    CLOUDY    61  57  87 W6        29.79R
6HR MIN TEMP:  61; 6HR MAX TEMP:  67; 6HR PCP:  0.27;

ST PAUL        CLOUDY    61  57  87 SW3       29.77S
CRYSTAL        CLOUDY    63  54  72 W8        29.78R
BLAINE         CLOUDY    63  59  88 SW5       29.78R
EDEN PRAIRIE   CLOUDY    61  55  81 SW9       29.79R
6HR MIN TEMP:  60; 6HR MAX TEMP:  68; 6HR PCP:  0.09;

SOUTH ST PAUL  PTSUNNY   60  58  92 CALM      29.77S
LAKE ELMO      FAIR      61  57  88 NE3       29.78F
$$
MNZ001>005-007-008-013>017-022>024-027-028-261300-
   Northwest Minnesota

CITY           SKY/WX    TMP DP  RH WIND       PRES   REMARKS
BEMIDJI        CLOUDY    55  55  99 CALM      29.75S FOG
HALLOCK        CLOUDY    59  55  88 SW13G20   29.66F
ROSEAU         CLOUDY    59  54  82 S10       29.70R
WARROAD        CLOUDY    57  54  88 S5        29.71R
THIEF RVR FALL CLOUDY    57  54  88 SW9       29.74R
CROOKSTON      MOSUNNY   57  55  94 S6        29.74R FOG
FOSSTON        PTSUNNY   54  54 100 S6        29.76R FOG
DETROIT LAKES  SUNNY     55  54  94 SW3       29.78S
MOORHEAD       SUNNY     54  52  94 S5        29.77R
PARK RAPIDS    PTSUNNY   59  56  89 W7        29.75S FOG
MAHNOMEN       FAIR      52  52  99 S6        29.75S FOG
$$
MNZ006-009>011-018-025>026-261300-
   North Central Minnesota

CITY           SKY/WX    TMP DP  RH WIND       PRES   REMARKS
BAUDETTE       CLOUDY    55  53  93 SE10      29.72R
FLAG ISLAND    CLOUDY    57  55  94 S15       29.69S
INTL FALLS     CLOUDY    54  52  93 SE5       29.77R
6HR MIN TEMP:  53; 6HR MAX TEMP:  56; 6HR PCP:  0.14;

WASKISH        CLOUDY    57  55  94 S5        29.74S
BIG FORK       CLOUDY    55  54  94 S5        29.77R FOG
LONGVILLE      FOG       55  55 100 SE6       29.77R VSB 1/2
GRAND RAPIDS   LGT RAIN  51  51 100 E5        29.79R VSB 3/4
CRANE LAKE     CLOUDY    54  52  94 CALM      29.80S
ORR            CLOUDY    54  50  87 CALM      29.75S
COOK           CLOUDY    54  54 100 SE5       29.79R
WALKER         CLOUDY    57  56  94 CALM      29.75S
$$
MNZ012-019>021-037-261300-
   Northeast Minnesota

CITY           SKY/WX    TMP DP  RH WIND       PRES   REMARKS
DULUTH         FOG       45  44  97 E8        29.81R VSB 1/8
6HR MIN TEMP:  43; 6HR MAX TEMP:  47;

ELY            CLOUDY    55  54  94 SE6       29.80R
HIBBING        FOG       50  50 100 SE6       29.79R VSB 1/4
EVELETH        CLOUDY    52  52 100 SE3       29.80S FOG
DULUTH HARBOR  FOG       43  43 100 NE7       29.83S VSB 1/2
TWO HARBORS    HAZE      50  45  81 CALM      29.80S VSB<1/4
SILVER BAY     CLOUDY    50  48  93 NE7       29.80F VSB 1/2
GRAND MARAIS     N/A     48  45  89 NE3       29.84R
G MARAIS ARPRT CLOUDY    54  50  87 E6        29.85R
$$
MNZ029>031-032-039>041-046>048-054>057-064-261300-
   West Central Minnesota

CITY           SKY/WX    TMP DP  RH WIND       PRES   REMARKS
FERGUS FALLS   SUNNY     54  54 100 CALM      29.76S FOG
WHEATON        MOSUNNY   57  55  94 CALM      29.82R
MORRIS         MOSUNNY   54  52  94 CALM      29.79F
ALEXANDRIA     CLOUDY    58  52  80 W7        29.79F
ELBOW LAKE     FOG       51  51 100 S5        29.79S VSB<1/4
WADENA         CLOUDY    54  54 100 SW7       29.76S
GLENWOOD       MOSUNNY   59  54  82 W5        29.79F
APPLETON       PTSUNNY   55  52  88 CALM      29.80S
ORTONVILLE     PTSUNNY   59  52  77 W7        29.80R
MADISON        MOSUNNY   57  54  88 W9        29.82S
WILLMAR        FAIR      59  55  88 W9        29.80R
$$
MNZ033>034-036-042>043-049>051-058-059-261300-
   Central Minnesota

CITY           SKY/WX    TMP DP  RH WIND       PRES   REMARKS
ST CLOUD       CLOUDY    60  60 100 S6        29.78R FOG
6HR MIN TEMP:  58; 6HR MAX TEMP:  60;

SAUK CENTRE    FAIR      58  52  80 W5        29.79R
PAYNESVILLE    PTSUNNY   59  56  91 W5        29.79R
AITKIN         FOG       55  52  88 CALM      29.76F VSB 1/4
PINE RIVER     CLOUDY    57  57 100 CALM      29.80S FOG
BRAINERD       CLOUDY    59  59 100 S6        29.77S FOG
STAPLES        CLOUDY    55  55 100 SW6       29.76F
LONG PRAIRIE   FAIR      59  52  77 SW7       29.78S
LITTLE FALLS   PTSUNNY   57  55  94 CALM      29.77S
LITCHFIELD     CLOUDY    63  57  82 CALM      29.79R
BUFFALO        PTSUNNY   61  57  87 S3        29.80R
MAPLE LAKE     CLOUDY    62  60  91 CALM      29.80R
HUTCHINSON     MOSUNNY   61  58  90 CALM      29.81R
$$
MNZ037-044-045-052-053-261300-
   East Central Minnesota

CITY           SKY/WX    TMP DP  RH WIND       PRES   REMARKS
PRINCETON      PTSUNNY   63  61  94 S3        29.78S
MORA           FOG       55  54  94 E5        29.80S VSB 1/2
CAMBRIDGE      CLOUDY    63  55  77 CALM      29.77R HAZE
RUSH CITY      CLOUDY    59  58  97 CALM      29.79S FOG
MOOSE LAKE     FOG       45  45 100 N3        29.79S VSB 3/4
HINCKLEY       FOG       54  54 100 CALM      29.79F VSB 1/2
CLOQUET        FOG       45  43  93 E5        29.80F VSB<1/4
MCGREGOR       CLOUDY    50  48  93 SE5       29.79F VSB 1/4
$$
MNZ071>073-080-081-089-090-097-098-261300-
   Southwest Minnesota

CITY           SKY/WX    TMP DP  RH WIND       PRES   REMARKS
MONTEVIDEO     MOSUNNY   59  52  77 CALM      29.83R
GRANITE FALLS  MOSUNNY   59  54  83 SW8       29.83R
CANBY          MOSUNNY   59  55  85 NW3       29.84R
MARSHALL       SUNNY     58  53  84 W7        29.84R
REDWOOD FALLS  PTSUNNY   62  53  72 W10       29.81R
OLIVIA         CLOUDY    55  54  94 W9        29.80R
PIPESTONE      SUNNY     57  52  82 NW9       29.85R
WINDOM         CLOUDY    59  54  82 CALM      29.85R
WORTHINGTON    SUNNY     59  56  89 W7        29.85R
JACKSON        PTSUNNY   59  54  82 SW12      29.86R
TRACY          SUNNY     60  54  82 W3        29.85R
SLAYTON        SUNNY     57  54  90 CALM      29.85R
$$
MNZ065>067-074>077-082>085-091>093-261300-
   South Central Minnesota

CITY           SKY/WX    TMP DP  RH WIND       PRES   REMARKS
MANKATO        CLOUDY    61  54  77 SW7       29.83R
NEW ULM        CLOUDY    61  55  82 SW9       29.81S
ST JAMES       CLOUDY    57  52  82 SW12G17   29.84R
FAIRMONT       CLOUDY    61  50  67 SW9       29.85S
GLENCOE        CLOUDY    63  59  88 S7        29.80R
OWATONNA       CLOUDY    61  55  82 SW7       29.82R
WASECA         CLOUDY    59  55  88 SW9       29.84R
ALBERT LEA     CLOUDY    57  57 100 SW3       29.84R
$$
MNZ078>079-086>088-094>096-261300-
   Southeast Minnesota

CITY           SKY/WX    TMP DP  RH WIND       PRES   REMARKS
ROCHESTER      CLOUDY    58  57  97 S8        29.81F
6HR MIN TEMP:  56; 6HR MAX TEMP:  64; 6HR PCP:  0.81;

RED WING       CLOUDY    61  57  88 NW7       29.77R
STANTON        CLOUDY    60  56  88 S5        29.78R
DODGE CENTER   CLOUDY    57  57 100 S8        29.82R
WINONA         LGT RAIN  59  57  94 SE5       29.79F
AUSTIN         CLOUDY    57  55  94 S5        29.89R
PRESTON        CLOUDY    56  55  94 S16       29.78F
$$
ABBREVIATIONS USED IN REMARKS
   TC - TEMPERATURES IN CELSIUS
  WCI - WIND CHILL INDEX
   HX - HEAT INDEX
  VSB - VISIBILITY
$$




USA.gov is the U.S. government's official web portal to all federal, state and local government web resources and services.